Погода в Аддис-Абеба

Эфиопия     9°02′06″N   38°45′05″E
темп.,
°C
ветер,
м/с
пор.,
м/с
влажн.,
%
обл.,
%
осадки,
мм/ч
давл.,
гПа
погр.,
м
21 января, чт
чт2100:00+13юв125089 0.0 1017179
03:00+12вюв125085 0.0 1017171
06:00+11вюв1250100 0.0 1018159
09:00+15вюв2437100 0.0 1019506
12:00+20вюв4525100 0.0 10151330
15:00+22вюв552380 0.0 10121559
18:00+18вюв352848 0.0 1013532
21:00+14в353128 0.0 1017225
22 января, пт
пт2200:00+12всв13350 0.0 1018187
03:00+12вюв133947 0.0 1017188
06:00+11всв234125 0.0 1017107
09:00+16вюв473255 0.0 1018680
12:00+20вюв672699 0.0 10141471
15:00+21вюв6622100 0.0 10101480
18:00+17вюв4728100 0.0 1012600
21:00+13всв353294 0.0 1017216
23 января, сб
сб2300:00+12в123373 0.0 1017159
03:00+11всв123457 0.0 1016111
06:00+10св113876 0.0 101754
09:00+15юв232958 0.0 1018507
12:00+20юв44230 0.0 10141555
15:00+23юв442024 0.0 10102097
18:00+18вюв572555 0.0 1011762
21:00+14в243035 0.0 1016209
24 января, вс
вс2400:00+12в243112 0.0 1016200
03:00+11всв01346 0.0 1016146
06:00+11всв22350 0.0 1017115
09:00+15юв22270 0.0 1017513
12:00+21юв23210 0.0 10141597
15:00+24ююв44160 0.0 10102370
18:00+19вюв57280 0.0 1011696
21:00+14в25360 0.0 1016247
25 января, пн
пн2500:00+13вюв13390 0.0 1016167
03:00+11всв12410 0.0 1016137
06:00+11всв13440 0.0 1017139
09:00+15вюв35360 0.0 1018651
12:00+21юв442563 0.0 10151590
15:00+23вюв552058 0.0 10112027
18:00+19вюв57311 0.0 1012699
21:00+14в36431 0.0 1016256